Location: Estes Par
(40.3770°N, 105.5210°W)
Time: 10:16:45
(UTC-07:00)

Vanguard 1 - All Passes

Search period start: 11 December 2017 00:00
Search period end: 21 December 2017 00:00
Orbit: 650 x 3833 km, 34.2° (Epoch: 10 December)

Date Brightness Start Highest point End Pass type
(mag) Time Alt. Az. Time Alt. Az. Time Alt. Az.
11 Dec - 05:25:00 10° SE 05:27:18 10° SE 05:29:33 10° SE visible
11 Dec - 07:32:22 10° SSW 07:51:07 34° SSE 08:04:48 10° E daylight
11 Dec - 09:55:18 10° SW 10:15:13 57° SSE 10:26:46 10° E daylight
11 Dec - 12:22:17 10° W 12:38:10 65° S 12:46:31 10° ESE daylight
11 Dec - 14:49:08 10° W 14:58:54 38° SSW 15:04:43 10° SE daylight
12 Dec - 05:36:38 10° SSE 05:48:18 16° SE 05:58:48 10° ESE visible
12 Dec - 07:52:09 10° SSW 08:12:18 41° SSE 08:26:26 10° E daylight
12 Dec - 10:16:30 10° WSW 10:36:29 62° S 10:47:46 10° E daylight
12 Dec - 12:43:57 10° W 12:59:14 62° S 13:07:19 10° ESE daylight
12 Dec - 15:10:54 10° W 15:19:28 29° SW 15:24:54 10° SSE daylight
13 Dec - 05:53:43 10° S 06:09:16 23° SE 06:22:45 10° E visible
13 Dec - 08:12:25 10° SW 08:33:33 48° SSE 08:47:49 10° E daylight
13 Dec - 10:37:56 10° WSW 10:57:45 66° S 11:08:45 10° E daylight
13 Dec - 13:05:37 10° W 13:20:14 58° SSW 13:28:02 10° ESE daylight
13 Dec - 15:32:55 10° W 15:39:53 22° SW 15:44:43 10° S daylight
14 Dec - 06:12:13 10° SSW 06:30:18 30° SE 06:45:24 10° E visible
14 Dec - 08:33:03 10° SW 08:54:49 55° SSE 09:09:03 10° E daylight
14 Dec - 10:59:30 10° WSW 11:19:01 68° S 11:29:40 10° E daylight
14 Dec - 13:27:19 10° W 13:41:06 51° SSW 13:48:38 10° SE daylight
14 Dec - 15:55:33 10° W 16:00:11 15° SW 16:03:49 10° SSW daylight
15 Dec - 04:22:00 10° SE 04:27:49 11° SE 04:33:33 10° ESE visible
15 Dec - 06:31:30 10° SSW 06:51:20 37° SE 07:07:26 10° E visible
15 Dec - 08:54:00 10° SW 09:16:09 61° SSE 09:30:11 10° E daylight
15 Dec - 11:21:10 10° W 11:40:15 68° S 11:50:33 10° ESE daylight
15 Dec - 13:49:03 10° W 14:01:50 43° SSW 14:09:04 10° SE daylight
16 Dec - 04:36:01 10° SSE 04:48:35 18° SE 05:00:42 10° E visible
16 Dec - 06:51:21 10° SSW 07:12:27 44° SSE 07:29:06 10° E visible
16 Dec - 09:15:13 10° WSW 09:37:29 66° SSE 09:51:16 10° E daylight
16 Dec - 11:42:54 10° W 12:01:25 66° SSW 12:11:23 10° ESE daylight
16 Dec - 14:10:54 10° W 14:22:24 34° SW 14:29:17 10° SSE daylight
17 Dec - 04:53:27 10° S 05:09:21 24° SE 05:24:31 10° E visible
17 Dec - 07:11:38 10° SW 07:33:40 51° SSE 07:50:33 10° E daylight
17 Dec - 09:36:38 10° WSW 09:58:52 69° S 10:12:17 10° E daylight
17 Dec - 12:04:39 10° W 12:22:29 61° SSW 12:32:07 10° ESE daylight
17 Dec - 14:32:58 10° W 14:42:50 26° SW 14:49:10 10° S daylight
18 Dec - 05:12:05 10° SSW 05:30:11 31° SE 05:47:12 10° E visible
18 Dec - 07:32:16 10° SW 07:54:57 58° SSE 08:11:51 10° E daylight
18 Dec - 09:58:12 10° WSW 10:20:14 71° S 10:33:17 10° E daylight
18 Dec - 12:26:25 10° W 12:43:26 55° SSW 12:52:44 10° SE daylight
18 Dec - 14:55:28 10° W 15:03:05 19° SW 15:08:31 10° S daylight
19 Dec - 03:22:02 10° SE 03:28:11 12° SE 03:34:27 10° ESE visible
19 Dec - 05:31:28 10° SSW 05:51:05 38° SE 06:09:17 10° E visible
19 Dec - 07:53:11 10° WSW 08:16:18 63° SSE 08:33:04 10° E daylight
19 Dec - 10:19:52 10° W 10:41:35 71° S 10:54:13 10° ESE daylight
19 Dec - 12:48:14 10° W 13:04:13 47° SSW 13:13:12 10° SE daylight
19 Dec - 15:19:11 10° WSW 15:23:14 12° SW 15:26:36 10° SSW daylight
20 Dec - 03:36:32 10° SSE 03:48:42 18° SE 04:01:27 10° E visible
20 Dec - 05:51:21 10° SSW 06:12:06 46° SSE 06:31:01 10° E visible
20 Dec - 08:14:21 10° WSW 08:37:43 68° SSE 08:54:13 10° E daylight
20 Dec - 10:41:35 10° W 11:02:52 68° SSW 11:15:07 10° ESE daylight
20 Dec - 13:10:09 10° W 13:24:50 39° SW 13:33:26 10° SSE daylight
